CW8374 Weather Reports


time (UTC)temp
C
wind
direction
speed
KPH
gust
KPH
rain 1hr
cm
rain 24hr
cm
rain mn
cm
humidity
%
barometer
mb
20260505073404 10 293 1.6 4.8 0.00 0.00 0.00 3 1011.8
20260505063903 8 306 0.0 0.0 0.00 0.00 0.00 3 1012.0
20260505063404 8 321 0.0 0.0 0.00 0.00 0.00 3 1012.0
20260505061903 8 309 0.0 0.0 0.00 0.00 0.00 3 1012.1
20260505060903 8 266 0.0 0.0 0.00 0.00 0.00 3 1011.9
20260505054404 7 266 0.0 0.0 0.00 0.00 0.00 3 1011.8
20260505051404 7 266 0.0 0.0 0.00 0.00 0.00 3 1011.7
20260505050904 7 266 0.0 0.0 0.00 0.00 0.00 3 1011.7
20260505050404 7 267 0.0 0.0 0.00 0.00 0.00 3 1011.7
20260505040404 7 271 0.0 1.6 0.00 0.00 0.00 3 1011.5
20260505034403 7 264 0.0 1.6 0.00 0.00 0.00 3 1011.5
20260505033404 7 286 0.0 0.0 0.00 0.00 0.00 3 1011.6
20260505031905 7 275 0.0 1.6 0.00 0.00 0.00 3 1011.7
20260505030905 7 274 0.0 1.6 0.00 0.00 0.00 3 1011.7
20260505024404 7 275 0.0 1.6 0.00 0.00 0.00 3 1011.7
20260505023904 7 268 0.0 1.6 0.00 0.00 0.00 3 1011.7
20260505023403 7 260 0.0 1.6 0.00 0.00 0.00 3 1011.7
20260505020404 7 240 0.0 3.2 0.00 0.00 0.00 3 1011.9
20260505013903 7 260 0.0 4.8 0.00 0.00 0.00 3 1012.2
20260505013403 7 269 0.0 4.8 0.00 0.00 0.00 3 1012.2
20260505011403 7 276 0.0 3.2 0.00 0.00 0.00 3 1012.2
20260505004905 7 277 0.0 3.2 0.00 0.00 0.00 3 1012.2
20260505003905 7 287 0.0 1.6 0.00 0.00 0.00 3 1012.3
20260505000905 7 269 0.0 0.0 0.00 0.00 0.00 3 1012.3
20260505000405 7 271 0.0 0.0 0.00 0.00 0.00 3 1012.4
20260504234404 7 265 0.0 0.0 0.00 0.00 0.00 3 1012.6
20260504233904 7 265 0.0 1.6 0.00 0.00 0.00 3 1012.6
20260504231404 7 297 0.0 1.6 0.00 0.00 0.00 3 1012.6
20260504230403 7 281 0.0 1.6 0.00 0.00 0.00 3 1012.6
20260504224904 8 287 0.0 1.6 0.00 0.00 0.00 3 1012.5
20260504223904 8 287 0.0 3.2 0.00 0.00 0.00 3 1012.6
20260504223404 8 279 0.0 3.2 0.00 0.00 0.00 3 1012.7
20260504221404 8 268 0.0 0.0 0.00 0.00 0.00 3 1012.8
20260504220404 8 253 0.0 1.6 0.00 0.00 0.00 3 1012.8
20260504214903 8 286 0.0 1.6 0.00 0.00 0.00 3 1012.8
20260504214404 8 278 0.0 1.6 0.00 0.00 0.00 3 1012.9
20260504213903 8 278 0.0 1.6 0.00 0.00 0.00 3 1012.9
20260504211904 8 291 0.0 0.0 0.00 0.00 0.00 3 1013.0
20260504210904 8 287 0.0 0.0 0.00 0.00 0.00 3 1013.0
20260504204403 10 292 0.0 1.6 0.00 0.00 0.00 3 1013.0
20260504203903 10 298 0.0 1.6 0.00 0.00 0.00 3 1013.0
20260504203405 10 297 0.0 11.3 0.00 0.00 0.00 3 1012.9
20260504201404 10 314 0.0 0.0 0.00 0.00 0.00 3 1012.7
20260504200905 10 313 0.0 1.6 0.00 0.00 0.00 3 1012.7
20260504194904 11 327 0.0 0.0 0.00 0.00 0.00 3 1012.5
20260504194403 11 304 0.0 1.6 0.00 0.00 0.00 3 1012.5
20260504191905 12 350 3.2 16.1 0.00 0.00 0.00 3 1012.5
20260504191404 12 317 8.0 19.3 0.00 0.00 0.00 3 1012.5
20260504190904 12 322 4.8 16.1 0.00 0.00 0.00 3 1012.5
20260504190406 12 305 8.0 19.3 0.00 0.00 0.00 3 1012.5
20260504184903 12 309 8.0 20.9 0.00 0.00 0.00 3 1012.3
20260504183904 12 325 0.0 16.1 0.00 0.00 0.00 3 1012.3
20260504183407 12 319 1.6 19.3 0.00 0.00 0.00 3 1012.3
20260504180904 12 312 9.7 20.9 0.00 0.00 0.00 3 1012.2
20260504174904 13 305 0.0 1.6 0.00 0.00 0.00 3 1012.2
20260504174403 13 306 4.8 16.1 0.00 0.00 0.00 3 1012.2
20260504173403 13 337 9.7 19.3 0.00 0.00 0.00 3 1012.2
20260504171903 15 318 9.7 19.3 0.00 0.00 0.00 3 1012.2
20260504171405 15 331 6.4 19.3 0.00 0.00 0.00 3 1012.2
20260504160404 12 336 0.0 11.3 0.00 0.00 0.00 3 1012.3
20260504150903 13 313 1.6 4.8 0.00 0.00 0.00 3 1012.3
20260504140403 12 310 1.6 4.8 0.00 0.00 0.00 3 1012.5
20260504130403 12 314 3.2 11.3 0.00 0.00 0.00 3 1012.6
20260504110404 11 71 0.0 0.0 0.00 0.00 0.00 3 1012.5
20260504081403 10 73 0.0 4.8 0.00 0.00 0.00 3 1012.0
20260504080403 10 76 0.0 8.0 0.00 0.00 0.00 3 1011.8